Regional Weather Roundup
Issued by NWS

Home | Current Version | Previous Version | Text Only | Print | Product List | Glossary On
Versions: 1 2 3 4 5 6 7 8 9 10 11 12 13 14 15 16 17 18 19 20 21 22 23 24 25 26 27
000
ASUS45 KBOI 291710
RWRID

IDAHO REGIONAL WEATHER ROUNDUP
NATIONAL WEATHER SERVICE BOISE ID
1100 AM MDT WED MAR 29 2017

NOTE: "FAIR" INDICATES FEW OR NO CLOUDS BELOW 12000 FEET
WITH NO SIGNIFICANT WEATHER AND/OR OBSTRUCTIONS TO VISIBILITY

IDZ012-014-291800-
SOUTHWEST IDAHO


CITY           SKY/WX    TMP DP  RH WIND       PRES   REMARKS
BOISE          CLOUDY    52  32  46 E17       30.15F
CALDWELL       CLOUDY    52  36  54 E12       30.16F
MOUNTAIN HOME  PTSUNNY   51  37  60 SE14      30.17F
$$

IDZ016-017-291800-
SOUTHCENTRAL IDAHO


CITY           SKY/WX    TMP DP  RH WIND       PRES   REMARKS
BURLEY         MOSUNNY   51  30  44 SW10      30.20S
JEROME         CLOUDY    47  32  56 S3        30.21F
TWIN FALLS     PTSUNNY   52  30  43 S8        30.20F
$$

IDZ019>023-291800-
SOUTHEAST IDAHO


CITY           SKY/WX    TMP DP  RH WIND       PRES   REMARKS
IDAHO FALLS    MOSUNNY   45  32  60 SW20      30.22S
POCATELLO      MOSUNNY   49  32  52 SW14      30.22F
REXBURG        MOSUNNY   43  31  62 SW15G21   30.20F
$$

IDZ006-010-011-018-031-032-291800-
CENTRAL IDAHO MOUNTAINS


CITY           SKY/WX    TMP DP  RH WIND       PRES   REMARKS
MCCALL         LGT RAIN  36  33  89 S8        30.12R WCI  30
HAILEY         PTSUNNY   39  25  56 CALM      30.21S
STANLEY          N/A     28  24  85 NW3       30.17F
SALMON         CLOUDY    43  27  52 N7        30.10F
CHALLIS        CLOUDY    40  27  59 NE3       30.13F
$$

IDZ002-004-006-007-026-291800-
NORTHERN IDAHO


CITY           SKY/WX    TMP DP  RH WIND       PRES   REMARKS
LEWISTON       LGT RAIN  47  43  86 E10       29.98F
LOWELL         NOT AVBL
COEUR D`ALENE  LGT RAIN  40  37  89 VRB6      29.98S
MULLAN PASS    SNOW      32  30  92 VRB7      29.93F VSB 1/4 WCI  26
$$




USA.gov is the U.S. government's official web portal to all federal, state and local government web resources and services.